FW3849 Weather Reports


Display with metric or nautical units.
time (UTC)temp
F
wind
direction
speed
MPH
gust
MPH
rain 1hr
in
rain 24hr
in
rain mn
in
humidity
%
barometer
mb
20260507210003 65 137 3.0 6.0 0.00 0.00 0.00 43 1015.7
20260507205504 65 141 3.0 10.0 0.00 0.00 0.00 43 1015.7
20260507205003 65 110 5.0 10.0 0.00 0.00 0.00 43 1015.8
20260507204502 65 159 5.0 9.0 0.00 0.00 0.00 43 1016.0
20260507204002 65 160 3.0 8.0 0.00 0.00 0.00 43 1016.1
20260507203502 65 164 4.0 8.0 0.00 0.00 0.00 43 1016.3
20260507203005 65 122 4.0 10.0 0.00 0.00 0.00 43 1016.2
20260507202500 65 86 4.0 10.0 0.00 0.00 0.00 43 1016.2
20260507202001 65 179 4.0 9.0 0.00 0.00 0.00 43 1016.1
20260507201502 65 122 4.0 6.0 0.00 0.00 0.00 44 1016.1
20260507201001 65 102 3.0 10.0 0.00 0.00 0.00 43 1016.2
20260507200002 66 117 2.0 10.0 0.00 0.00 0.00 43 1016.4
20260507195501 65 71 3.0 8.0 0.00 0.00 0.00 43 1016.4
20260507195003 65 127 4.0 10.0 0.00 0.00 0.00 43 1016.5
20260507194501 65 127 4.0 10.0 0.00 0.00 0.00 43 1016.4
20260507194100 65 131 3.0 9.0 0.00 0.00 0.00 43 1016.5
20260507193600 65 131 4.0 9.0 0.00 0.00 0.00 44 1016.5
20260507193059 65 144 4.0 8.0 0.00 0.00 0.00 45 1016.6
20260507192558 64 83 3.0 8.0 0.00 0.00 0.00 45 1016.7
20260507192101 64 117 3.0 6.0 0.00 0.00 0.00 45 1016.7
20260507191600 64 158 3.0 6.0 0.00 0.00 0.00 45 1016.9
20260507191059 64 152 4.0 9.0 0.00 0.00 0.00 45 1016.9
20260507190058 64 183 5.0 9.0 0.00 0.00 0.00 44 1017.1
20260507185556 64 110 4.0 9.0 0.00 0.00 0.00 44 1017.0
20260507185056 64 144 2.0 11.0 0.00 0.00 0.00 44 1017.1
20260507184604 64 77 4.0 11.0 0.00 0.00 0.00 44 1017.0
20260507184057 64 58 4.0 9.0 0.00 0.00 0.00 44 1017.1
20260507183555 64 117 4.0 10.0 0.00 0.00 0.00 44 1017.2
20260507183055 64 156 4.0 11.0 0.00 0.00 0.00 44 1017.2
20260507182556 64 122 5.0 13.0 0.00 0.00 0.00 44 1017.4
20260507182155 64 160 6.0 13.0 0.00 0.00 0.00 45 1017.3
20260507181603 65 117 4.0 11.0 0.00 0.00 0.00 45 1017.3
20260507181054 65 71 5.0 11.0 0.00 0.00 0.00 44 1017.5
20260507180055 64 62 3.0 8.0 0.00 0.00 0.00 46 1017.5
20260507175555 63 55 2.0 9.0 0.00 0.00 0.00 46 1017.5
20260507175054 63 110 3.0 10.0 0.00 0.00 0.00 46 1017.7
20260507174557 63 168 2.0 8.0 0.00 0.00 0.00 46 1017.8
20260507174052 63 111 3.0 9.0 0.00 0.00 0.00 46 1017.8
20260507173552 63 117 3.0 9.0 0.00 0.00 0.00 46 1017.9
20260507173053 63 103 3.0 6.0 0.00 0.00 0.00 46 1017.8
20260507172556 63 133 3.0 6.0 0.00 0.00 0.00 46 1017.9
20260507172051 63 111 2.0 10.0 0.00 0.00 0.00 46 1017.8
20260507171556 63 89 5.0 10.0 0.00 0.00 0.00 47 1018.0
20260507171051 62 133 2.0 8.0 0.00 0.00 0.00 49 1017.9
20260507170052 62 73 3.0 8.0 0.00 0.00 0.00 50 1018.0
20260507165549 62 67 4.0 8.0 0.00 0.00 0.00 50 1018.2
20260507165049 61 104 3.0 8.0 0.00 0.00 0.00 52 1018.2
20260507164549 61 117 3.0 9.0 0.00 0.00 0.00 52 1018.3
20260507164054 61 60 4.0 9.0 0.00 0.00 0.00 53 1018.3
20260507163548 61 105 3.0 7.0 0.00 0.00 0.00 52 1018.2
20260507163053 61 101 4.0 7.0 0.00 0.00 0.00 49 1018.1
20260507162549 61 133 2.0 9.0 0.00 0.00 0.00 49 1018.2
20260507162047 61 67 4.0 10.0 0.00 0.00 0.00 48 1018.3
20260507161548 62 152 4.0 11.0 0.00 0.00 0.00 48 1018.2
20260507161047 62 62 5.0 11.0 0.00 0.00 0.00 48 1018.2
20260507160047 62 66 3.0 8.0 0.00 0.00 0.00 48 1018.1
20260507155546 61 162 2.0 9.0 0.00 0.00 0.00 48 1018.0
20260507155046 61 51 3.0 11.0 0.00 0.00 0.00 48 1018.1
20260507154548 61 66 6.0 11.0 0.00 0.00 0.00 47 1017.9
20260507154046 62 67 4.0 11.0 0.00 0.00 0.00 48 1017.9
20260507153544 62 48 4.0 11.0 0.00 0.00 0.00 48 1017.8
20260507153050 61 84 7.0 11.0 0.00 0.00 0.00 48 1017.7
20260507152542 61 82 5.0 11.0 0.00 0.00 0.00 49 1017.8
20260507152041 60 45 2.0 9.0 0.00 0.00 0.00 51 1017.8
20260507151541 60 86 3.0 10.0 0.00 0.00 0.00 50 1017.8
20260507151040 60 62 7.0 14.0 0.00 0.00 0.00 50 1017.8
20260507150043 60 57 7.0 12.0 0.00 0.00 0.00 51 1017.8
20260507145540 60 67 6.0 11.0 0.00 0.00 0.00 51 1017.8
20260507145039 60 64 4.0 11.0 0.00 0.00 0.00 52 1017.9
20260507144539 60 62 3.0 12.0 0.00 0.00 0.00 52 1017.9
20260507144039 59 134 5.0 12.0 0.00 0.00 0.00 52 1017.9
20260507143538 59 54 4.0 13.0 0.00 0.00 0.00 53 1017.8
20260507143039 59 65 9.0 13.0 0.00 0.00 0.00 53 1017.9
20260507142537 59 62 7.0 12.0 0.00 0.00 0.00 53 1017.8
20260507142036 59 73 4.0 9.0 0.00 0.00 0.00 55 1017.7
20260507141536 58 79 2.0 10.0 0.00 0.00 0.00 55 1017.7
20260507141036 58 58 9.0 12.0 0.00 0.00 0.00 55 1017.6
20260507140039 58 60 6.0 12.0 0.00 0.00 0.00 56 1017.6
20260507135534 58 91 3.0 10.0 0.00 0.00 0.00 57 1017.7
20260507135034 58 58 5.0 11.0 0.00 0.00 0.00 57 1017.6
20260507134539 58 72 7.0 12.0 0.00 0.00 0.00 57 1017.6
20260507134035 58 65 5.0 13.0 0.00 0.00 0.00 57 1017.8
20260507133533 58 56 5.0 12.0 0.00 0.00 0.00 57 1017.7
20260507133032 58 67 5.0 11.0 0.00 0.00 0.00 58 1017.7
20260507132532 58 37 8.0 13.0 0.00 0.00 0.00 57 1017.7
20260507132036 58 49 8.0 14.0 0.00 0.00 0.00 58 1017.5
20260507131548 58 44 8.0 14.0 0.00 0.00 0.00 58 1017.6
20260507131031 58 58 8.0 15.0 0.00 0.00 0.00 58 1017.5
20260507130031 57 93 7.0 15.0 0.00 0.00 0.00 59 1017.3
20260507125531 57 83 9.0 15.0 0.00 0.00 0.00 59 1017.2
20260507125029 57 60 11.0 15.0 0.00 0.00 0.00 59 1017.0
20260507124528 57 62 10.0 15.0 0.00 0.00 0.00 59 1016.9
20260507124028 57 40 7.0 13.0 0.00 0.00 0.00 59 1017.1
20260507123528 57 75 6.0 15.0 0.00 0.00 0.00 60 1017.0
20260507123026 57 76 10.0 15.0 0.00 0.00 0.00 60 1016.8
20260507122625 58 70 8.0 12.0 0.00 0.00 0.00 60 1016.7
20260507122024 58 58 7.0 12.0 0.00 0.00 0.00 59 1016.7
20260507121523 58 33 5.0 11.0 0.00 0.00 0.00 60 1016.7
20260507121023 58 58 9.0 16.0 0.00 0.00 0.00 59 1016.5
20260507120035 58 73 5.0 11.0 0.00 0.00 0.00 60 1016.5
20260507115523 58 58 4.0 13.0 0.00 0.00 0.00 60 1016.4
20260507115021 58 47 8.0 14.0 0.00 0.00 0.00 60 1016.5
20260507114521 59 71 6.0 11.0 0.00 0.00 0.00 60 1016.3
20260507114019 59 61 3.0 9.0 0.00 0.00 0.00 61 1016.4
20260507113517 58 31 6.0 9.0 0.00 0.00 0.00 61 1016.4
20260507113017 58 57 4.0 8.0 0.00 0.00 0.00 61 1016.1
20260507112518 58 56 3.0 6.0 0.00 0.00 0.00 61 1016.2
20260507112016 58 131 3.0 10.0 0.00 0.00 0.00 61 1016.2
20260507111515 58 87 4.0 14.0 0.00 0.00 0.00 61 1016.1
20260507111013 58 73 3.0 9.0 0.00 0.00 0.00 61 1015.9
20260507110013 59 75 3.0 9.0 0.00 0.00 0.00 61 1015.8
20260507105510 59 104 3.0 11.0 0.00 0.00 0.00 61 1015.7
20260507105008 59 59 7.0 11.0 0.00 0.00 0.00 61 1015.6
20260507104511 59 52 8.0 13.0 0.00 0.00 0.00 60 1015.7
20260507104007 59 102 7.0 12.0 0.00 0.00 0.00 60 1015.6
20260507103508 60 57 4.0 8.0 0.00 0.00 0.00 60 1015.6
20260507103006 60 60 3.0 5.0 0.00 0.00 0.00 59 1015.5
20260507102505 60 36 1.0 5.0 0.00 0.00 0.00 59 1015.4
20260507102002 60 75 2.0 5.0 0.00 0.00 0.00 59 1015.1
20260507101501 60 122 3.0 5.0 0.00 0.00 0.00 59 1014.9
20260507101001 60 108 1.0 6.0 0.00 0.00 0.00 58 1014.9
20260507100002 60 131 4.0 8.0 0.00 0.00 0.00 58 1015.2
20260507095501 60 117 3.0 8.0 0.00 0.00 0.00 58 1015.3
20260507095001 60 65 3.0 8.0 0.00 0.00 0.00 58 1015.2
20260507094500 60 131 1.0 9.0 0.00 0.00 0.00 58 1015.2
20260507094100 60 138 5.0 9.0 0.00 0.00 0.00 58 1015.3
20260507093600 61 152 3.0 10.0 0.00 0.00 0.00 58 1015.1
20260507093100 61 131 2.0 10.0 0.00 0.00 0.00 58 1014.9
20260507092603 61 173 3.0 10.0 0.00 0.00 0.00 58 1014.7
20260507092059 61 131 4.0 10.0 0.00 0.00 0.00 57 1014.8
20260507091559 61 59 5.0 10.0 0.00 0.00 0.00 57 1014.8
20260507091057 61 140 2.0 8.0 0.00 0.00 0.00 57 1014.9
20260507090057 61 150 3.0 9.0 0.00 0.00 0.00 57 1014.9
20260507085555 62 164 3.0 11.0 0.00 0.00 0.00 56 1014.7
20260507085054 62 168 6.0 11.0 0.00 0.00 0.00 56 1015.0
20260507084555 62 143 4.0 11.0 0.00 0.00 0.00 56 1015.1
20260507084055 62 154 4.0 11.0 0.00 0.00 0.00 56 1015.2
20260507083552 62 166 4.0 11.0 0.00 0.00 0.00 56 1015.3
20260507083051 62 176 4.0 11.0 0.00 0.00 0.00 55 1015.1
20260507082550 63 191 5.0 13.0 0.00 0.00 0.00 55 1015.1
20260507082053 63 161 6.0 11.0 0.00 0.00 0.00 55 1014.9
20260507081552 63 178 3.0 6.0 0.00 0.00 0.00 55 1015.0
20260507081049 63 171 5.0 10.0 0.00 0.00 0.00 55 1015.2
20260507080051 63 188 3.0 11.0 0.00 0.00 0.00 55 1015.0
20260507075549 63 135 3.0 11.0 0.00 0.00 0.00 55 1014.8
20260507075047 63 148 5.0 11.0 0.00 0.00 0.00 54 1014.7
20260507074600 64 135 5.0 11.0 0.00 0.00 0.00 54 1014.5
20260507074146 64 157 4.0 11.0 0.00 0.00 0.00 54 1014.6
20260507073549 64 172 4.0 9.0 0.00 0.00 0.00 54 1014.6
20260507073044 64 150 3.0 9.0 0.00 0.00 0.00 54 1014.6
20260507072544 64 166 5.0 9.0 0.00 0.00 0.00 54 1014.6
20260507072042 64 174 4.0 9.0 0.00 0.00 0.00 54 1014.7
20260507071543 65 206 4.0 6.0 0.00 0.00 0.00 54 1014.5
20260507071042 65 178 4.0 9.0 0.00 0.00 0.00 54 1014.5
20260507070043 65 183 4.0 8.0 0.00 0.00 0.00 54 1014.4
20260507065542 65 176 3.0 8.0 0.00 0.00 0.00 53 1014.4
20260507065041 65 199 4.0 7.0 0.00 0.00 0.00 53 1014.5
20260507064541 66 168 3.0 9.0 0.00 0.00 0.00 53 1014.2
20260507064041 66 183 4.0 9.0 0.00 0.00 0.00 53 1014.4
20260507063538 66 195 4.0 9.0 0.00 0.00 0.00 53 1014.4
20260507063039 66 201 4.0 9.0 0.00 0.00 0.00 53 1014.3
20260507062537 66 180 4.0 9.0 0.00 0.00 0.00 53 1014.2
20260507062040 67 148 3.0 9.0 0.00 0.00 0.00 52 1014.1
20260507061536 67 149 3.0 9.0 0.00 0.00 0.00 52 1014.1
20260507061034 67 183 4.0 8.0 0.00 0.00 0.00 51 1013.9
20260507060035 67 195 4.0 9.0 0.00 0.00 0.00 50 1013.7
20260507055534 67 160 3.0 10.0 0.00 0.00 0.00 50 1013.6
20260507055035 68 146 4.0 11.0 0.00 0.00 0.00 49 1013.5
20260507054533 68 164 5.0 12.0 0.00 0.00 0.00 49 1013.4
20260507054033 68 147 4.0 10.0 0.00 0.00 0.00 49 1013.5
20260507053533 68 152 3.0 6.0 0.00 0.00 0.00 48 1013.4
20260507053035 69 106 2.0 8.0 0.00 0.00 0.00 48 1013.4
20260507052531 69 145 3.0 8.0 0.00 0.00 0.00 48 1013.2
20260507052031 69 199 3.0 10.0 0.00 0.00 0.00 47 1013.2
20260507051532 69 127 3.0 10.0 0.00 0.00 0.00 47 1013.1
20260507051029 70 135 2.0 6.0 0.00 0.00 0.00 47 1013.1
20260507050032 70 185 2.0 6.0 0.00 0.00 0.00 46 1012.9
20260507045531 70 127 3.0 8.0 0.00 0.00 0.00 46 1012.9
20260507045030 70 156 2.0 8.0 0.00 0.00 0.00 45 1013.0
20260507044530 70 117 2.0 7.0 0.00 0.00 0.00 45 1012.8
20260507044029 70 154 3.0 7.0 0.00 0.00 0.00 45 1012.9
20260507043529 71 168 2.0 5.0 0.00 0.00 0.00 45 1012.8
20260507043029 71 136 2.0 6.0 0.00 0.00 0.00 44 1012.8
20260507042529 71 139 2.0 7.0 0.00 0.00 0.00 44 1012.8
20260507042029 71 177 4.0 8.0 0.00 0.00 0.00 43 1012.7
20260507041528 71 104 3.0 6.0 0.00 0.00 0.00 43 1012.7
20260507041028 71 154 2.0 5.0 0.00 0.00 0.00 42 1012.7
20260507040027 72 164 2.0 5.0 0.00 0.00 0.00 41 1012.5
20260507035524 72 181 2.0 5.0 0.00 0.00 0.00 41 1012.5
20260507035024 72 157 3.0 5.0 0.00 0.00 0.00 40 1012.4
20260507034523 73 117 3.0 8.0 0.00 0.00 0.00 39 1012.5
20260507034023 73 150 3.0 8.0 0.00 0.00 0.00 39 1012.4
20260507033523 73 162 4.0 10.0 0.00 0.00 0.00 39 1012.2
20260507033024 73 156 5.0 10.0 0.00 0.00 0.00 38 1012.1
20260507032523 74 193 6.0 10.0 0.00 0.00 0.00 38 1012.1
20260507032025 74 152 5.0 9.0 0.00 0.00 0.00 37 1012.0
20260507031521 74 170 4.0 10.0 0.00 0.00 0.00 36 1012.1
20260507031025 74 136 3.0 6.0 0.00 0.00 0.00 32 1012.0
20260507030023 74 152 2.0 5.0 0.00 0.00 0.00 31 1011.7
20260507025522 74 140 2.0 5.0 0.00 0.00 0.00 31 1011.5
20260507025022 74 177 3.0 5.0 0.00 0.00 0.00 30 1011.5
20260507024525 75 174 2.0 5.0 0.00 0.00 0.00 28 1011.5
20260507024025 75 169 1.0 3.0 0.00 0.00 0.00 27 1011.4
20260507023522 75 157 1.0 3.0 0.00 0.00 0.00 26 1011.3
20260507023021 75 156 1.0 4.0 0.00 0.00 0.00 26 1011.1
20260507022525 75 164 1.0 5.0 0.00 0.00 0.00 26 1010.9
20260507022025 75 162 2.0 5.0 0.00 0.00 0.00 25 1010.9
20260507021522 76 192 3.0 5.0 0.00 0.00 0.00 26 1010.9
20260507021020 76 191 3.0 5.0 0.00 0.00 0.00 25 1010.7
20260507020019 76 221 2.0 3.0 0.00 0.00 0.00 25 1010.5
20260507015518 77 218 1.0 3.0 0.00 0.00 0.00 24 1010.4
20260507015018 77 185 1.0 3.0 0.00 0.00 0.00 24 1010.4
20260507014526 77 170 1.0 3.0 0.00 0.00 0.00 24 1010.3
20260507014018 77 153 1.0 2.0 0.00 0.00 0.00 24 1010.3
20260507013517 77 153 1.0 3.0 0.00 0.00 0.00 24 1010.3
20260507013017 77 153 1.0 3.0 0.00 0.00 0.00 23 1010.3
20260507012519 77 153 1.0 3.0 0.00 0.00 0.00 23 1010.1
20260507012019 78 153 1.0 4.0 0.00 0.00 0.00 23 1010.1
20260507011519 78 163 1.0 4.0 0.00 0.00 0.00 23 1010.0
20260507011017 78 173 1.0 5.0 0.00 0.00 0.00 23 1010.0
20260507010017 78 185 2.0 4.0 0.00 0.00 0.00 22 1009.9
20260507005517 78 127 1.0 4.0 0.00 0.00 0.00 22 1009.8
20260507005017 79 104 1.0 6.0 0.00 0.00 0.00 22 1009.8
20260507004520 79 122 2.0 6.0 0.00 0.00 0.00 21 1009.8
20260507004020 79 147 2.0 6.0 0.00 0.00 0.00 21 1009.8
20260507003515 79 110 3.0 6.0 0.00 0.00 0.00 21 1009.8
20260507003015 80 81 3.0 6.0 0.00 0.00 0.00 20 1009.8
20260507002516 80 127 3.0 6.0 0.00 0.00 0.00 18 1009.7
20260507002016 80 127 3.0 5.0 0.00 0.00 0.00 18 1009.7
20260507001521 81 70 3.0 5.0 0.00 0.00 0.00 16 1009.5
20260507001017 81 68 3.0 9.0 0.00 0.00 0.00 14 1009.6
20260507000022 81 54 4.0 9.0 0.00 0.00 0.00 13 1009.6
20260506235515 82 67 2.0 5.0 0.00 0.00 0.00 13 1009.6
20260506235015 82 86 3.0 5.0 0.00 0.00 0.00 13 1009.6
20260506234516 82 61 2.0 6.0 0.00 0.00 0.00 13 1009.5
20260506234016 82 46 2.0 6.0 0.00 0.00 0.00 13 1009.4
20260506233516 83 31 3.0 7.0 0.00 0.00 0.00 12 1009.5
20260506233015 83 39 2.0 10.0 0.00 0.00 0.00 12 1009.3
20260506232515 83 60 5.0 8.0 0.00 0.00 0.00 12 1009.3
20260506232014 83 54 3.0 8.0 0.00 0.00 0.00 12 1009.3
20260506231515 83 50 3.0 9.0 0.00 0.00 0.00 12 1009.4
20260506231018 83 41 4.0 9.0 0.00 0.00 0.00 13 1009.4
20260506230017 84 86 2.0 9.0 0.00 0.00 0.00 12 1009.3
20260506225517 84 70 4.0 11.0 0.00 0.00 0.00 12 1009.3
20260506225014 84 61 7.0 11.0 0.00 0.00 0.00 11 1009.2
20260506224514 84 41 3.0 13.0 0.00 0.00 0.00 12 1009.2
20260506224015 85 15 8.0 13.0 0.00 0.00 0.00 11 1009.2
20260506223513 85 81 7.0 12.0 0.00 0.00 0.00 11 1009.3
20260506223013 85 19 2.0 10.0 0.00 0.00 0.00 11 1009.2
20260506222513 84 49 6.0 10.0 0.00 0.00 0.00 12 1009.5
20260506222016 84 56 3.0 8.0 0.00 0.00 0.00 11 1009.6
20260506221513 84 348 2.0 8.0 0.00 0.00 0.00 11 1009.6
20260506221017 85 17 4.0 9.0 0.00 0.00 0.00 11 1009.5
20260506220021 85 2 4.0 8.0 0.00 0.00 0.00 11 1009.5
20260506215520 85 36 3.0 8.0 0.00 0.00 0.00 12 1009.4
20260506215018 85 37 2.0 10.0 0.00 0.00 0.00 11 1009.4
20260506214514 85 347 3.0 10.0 0.00 0.00 0.00 10 1009.5
20260506214014 84 1 3.0 8.0 0.00 0.00 0.00 10 1009.6
20260506213513 84 341 4.0 9.0 0.00 0.00 0.00 10 1009.6
20260506213013 84 341 4.0 11.0 0.00 0.00 0.00 11 1009.6
20260506212513 84 300 6.0 12.0 0.00 0.00 0.00 11 1009.7
20260506212015 84 322 6.0 12.0 0.00 0.00 0.00 11 1009.7
20260506211512 84 5 6.0 12.0 0.00 0.00 0.00 12 1009.8
20260506211013 84 324 4.0 12.0 0.00 0.00 0.00 11 1009.7